[[{"header":{"parameterUnit":"m.s-1","parameterCategory":2,"la1":30.2991,"la2":30.254,"lo1":-89.0895,"lo2":-89.0444,"dy":0.0017,"dx":0.0017,"nx":28,"ny":28,"refTime":"2025-03-09T09:00:00:Z","depth":"0","parameterNumber":2,"parameterNumberName":"U-component_of_CURRENTS"},"data":[0,0,0,0,0,0,0,0,0,0,0,0,0,0,0,0,0,0,0,0,0,0,0,0,0,0,0,0,0,0,0,0,0,0,0,0,0,0,0,0,0,0,0,0,0,0,0,0,0,0,0,0,0,0,0,0,0,0,0.1663,0.1664,0,0.1701,0.1701,0.1701,0.1693,0.1692,0.1692,0.1691,0.1673,0.1673,0.1673,0,0,0,0,0,0,0,0,0,0,0,0,0,0.1586,0.1587,0.1663,0.1664,0.1664,0.1701,0.1701,0.1701,0.1693,0.1692,0.1692,0.1691,0.1673,0.1673,0.1673,0,0,0,0,0,0,0,0,0,0,0,0,0,0.1618,0.1587,0.1663,0.1666,0.1667,0.1701,0.1701,0.1701,0.1693,0.1692,0.1692,0.1691,0.1673,0.1673,0.1673,0.1687,0,0,0.1673,0.1673,0,0,0,0,0,0,0,0,0.1616,0.1621,0.1665,0.1666,0.1667,0.1694,0.1667,0.1695,0.1693,0.168,0.1691,0.1691,0.1677,0.1677,0.1683,0.1686,0.1685,0.1673,0.1673,0.1673,0.1673,0,0,0,0,0,0,0,0.1614,0.1619,0.1675,0.1666,0.1667,0.1667,0.1671,0.1673,0.1679,0.1682,0.1682,0.169,0.1677,0.1683,0.1682,0.1685,0.1673,0.1673,0.1673,0.1673,0.1731,0.1732,0,0,0,0,0,0,0.1616,0.1617,0.1674,0.1677,0.1643,0.1669,0.1673,0.1684,0.168,0.1681,0.1691,0.169,0.1683,0.1682,0.1681,0.1722,0.1673,0.1673,0.1673,0.1729,0.1731,0.1733,0,0,0,0,0,0,0.1614,0.1621,0.1673,0.165,0.1656,0.1672,0.1684,0.1685,0.1695,0.1689,0.1687,0.17,0.1682,0.1681,0.1696,0.172,0.1673,0.1673,0.1727,0.173,0.1732,0.1787,0,0,0,0,0,0,0.1612,0.162,0.1627,0.165,0.1658,0.17,0.1685,0.1686,0.1702,0.1701,0.1696,0.1693,0.1682,0.1697,0.1696,0.1719,0.1673,0.1725,0.1728,0.1731,0.1783,0.1791,0.1797,0,0,0,0,0,0.1609,0.1623,0.1628,0.1635,0.1668,0.1702,0.1706,0.1712,0.1704,0.1716,0.1715,0.1694,0.1715,0.1698,0.1697,0.172,0.1724,0.1727,0.1731,0.178,0.1789,0.1797,0,0,0,0,0,0,0.159,0.1625,0.163,0.1652,0.1679,0.1701,0.1714,0.1719,0.1728,0.1725,0.1712,0.171,0.1733,0.1723,0.1704,0.1747,0.1717,0.172,0.1754,0.1763,0.177,0.1757,0.1673,0,0,0,0,0,0.1592,0.1612,0.1645,0.1663,0.1679,0.1698,0.1711,0.1719,0.1732,0.1736,0.1734,0.1736,0.1748,0.1751,0.1757,0.1779,0.1786,0.1795,0.1802,0.1808,0.1799,0.1833,0.1842,0.1744,0.1744,0.1744,0,0,0.1587,0.1611,0.1621,0.1661,0.168,0.1708,0.1703,0.1731,0.1751,0.1732,0.1754,0.1759,0.176,0.1787,0.1796,0.178,0.185,0.1813,0.1818,0.1805,0.1837,0.1847,0.1855,0.1747,0.1746,0.1746,0,0,0.1595,0.1615,0.1636,0.1663,0.1702,0.1719,0.173,0.1759,0.177,0.1797,0.1792,0.1811,0.1824,0.1833,0.1838,0.1888,0.1887,0.1897,0.1921,0.1955,0.1962,0.1969,0.203,0.2042,0.19,0.19,0.19,0,0.1586,0.162,0.1647,0.1678,0.1698,0.1725,0.175,0.1774,0.1803,0.1814,0.1808,0.1846,0.1844,0.1881,0.19,0.1903,0.1931,0.1886,0.1963,0.197,0.1976,0.2036,0.2048,0.1903,0.1903,0.1902,0.1902,0,0.1613,0.164,0.1658,0.1704,0.1729,0.1759,0.1795,0.1821,0.1834,0.1853,0.1891,0.1902,0.1921,0.1935,0.1929,0.198,0.1992,0.1969,0.1938,0.1989,0.205,0.2062,0.1907,0.1906,0.1905,0.1905,0,0,0.1586,0.1661,0.1665,0.1685,0.1744,0.1764,0.1809,0.1851,0.1879,0.1908,0.1946,0.197,0.1977,0.1983,0.1993,0.2021,0.2102,0.2015,0.2016,0.2071,0.2207,0.2279,0.2298,0.2095,0.2096,0.2097,0.2246,0,0.1596,0.1649,0.1685,0.1726,0.1753,0.1793,0.1829,0.1869,0.1909,0.1957,0.1981,0.2023,0.1998,0.2024,0.2046,0.2088,0.2129,0.2065,0.2152,0.2155,0.2208,0.2312,0.2359,0.25,0.2257,0.2259,0.226,0,0.1604,0.1641,0.1681,0.1735,0.175,0.1774,0.1832,0.1873,0.1949,0.1982,0.2028,0.2061,0.2119,0.209,0.2176,0.2141,0.2174,0.2201,0.2207,0.2255,0.2248,0.2403,0.253,0.2494,0.2278,0.2277,0.2275,0,0.1565,0.1631,0.1657,0.1678,0.1747,0.1763,0.18,0.1871,0.1911,0.2011,0.2058,0.2123,0.2172,0.2215,0.228,0.2235,0.2388,0.233,0.243,0.2436,0.2481,0.2489,0.2574,0.2389,0.2389,0.2389,0.2388,0,0.1558,0.1575,0.1637,0.1652,0.1678,0.1734,0.1773,0.1831,0.1919,0.1979,0.2064,0.2134,0.2202,0.2298,0.2329,0.2447,0.2432,0.2463,0.2486,0.2508,0.2516,0.2487,0.2422,0.2394,0.2393,0.2392,0.2391,0,0.1505,0.1554,0.1578,0.164,0.166,0.1672,0.1748,0.1778,0.1883,0.1975,0.2015,0.216,0.2305,0.2399,0.2508,0.2528,0.2583,0.266,0.2704,0.2729,0.2761,0.2696,0.2649,0.2546,0.2791,0.2794,0.2796,0,0.1485,0.1495,0.1546,0.155,0.1573,0.1608,0.1632,0.1741,0.1793,0.1988,0.2031,0.2222,0.2357,0.2587,0.2704,0.2844,0.2697,0.2932,0.2836,0.2805,0.2749,0.2561,0.246,0.2935,0.2939,0.2941,0.2943,0,0.1428,0.1439,0.1444,0.1468,0.1484,0.1517,0.1576,0.1619,0.1765,0.1872,0.2038,0.2178,0.2478,0.2674,0.29,0.2977,0.2831,0.299,0.294,0.2869,0.2684,0.2583,0.2803,0.2967,0.2965,0.2963,0.2962,0.2961,0.1352,0.133,0.1339,0.1357,0.1377,0.1413,0.1426,0.1523,0.1621,0.1801,0.1976,0.2202,0.2596,0.2939,0.2991,0.3179,0.2984,0.315,0.3082,0.2898,0.277,0.3063,0.3251,0.325,0.325,0.3249,0.3249,0,0.1236,0.1229,0.1236,0.1244,0.124,0.1301,0.1369,0.1394,0.1489,0.1744,0.1915,0.2374,0.2696,0.2988,0.3333,0.3291,0.3091,0.3229,0.2973,0.2866,0.3165,0.3147,0.3341,0.3341,0.3341,0.3341,0.3341,0.3341,0.1165,0.1123,0.1143,0.1111,0.1122,0.1111,0.1138,0.1212,0.1378,0.1676,0.1966,0.2236,0.2782,0.3308,0.3468,0.3393,0.3045,0.3,0.2822,0.3079,0.3064,0.305,0.3019,0.3184,0.3184,0.2468,0.2463,0.2459]},{"header":{"parameterUnit":"m.s-1","parameterCategory":2,"la1":30.2991,"la2":30.254,"lo1":-89.0895,"lo2":-89.0444,"dy":0.0017,"dx":0.0017,"nx":28,"ny":28,"refTime":"2025-03-09T09:00:00:Z","depth":"0","parameterNumber":3,"parameterNumberName":"V-component_of_CURRENTS"},"data":[0,0,0,0,0,0,0,0,0,0,0,0,0,0,0,0,0,0,0,0,0,0,0,0,0,0,0,0,0,0,0,0,0,0,0,0,0,0,0,0,0,0,0,0,0,0,0,0,0,0,0,0,0,0,0,0,0,0,-0.0291,-0.0292,0,-0.0378,-0.0379,-0.038,-0.0436,-0.0437,-0.0437,-0.0437,-0.056,-0.0563,-0.0566,0,0,0,0,0,0,0,0,0,0,0,0,0,-0.0221,-0.0222,-0.0291,-0.0292,-0.0293,-0.0378,-0.0379,-0.038,-0.0436,-0.0437,-0.0437,-0.0437,-0.0559,-0.0563,-0.0567,0,0,0,0,0,0,0,0,0,0,0,0,0,-0.0275,-0.0222,-0.029,-0.033,-0.0335,-0.0378,-0.0379,-0.0381,-0.0436,-0.0437,-0.0437,-0.0438,-0.0558,-0.0563,-0.0567,-0.0586,0,0,-0.0581,-0.0583,0,0,0,0,0,0,0,0,-0.0272,-0.0277,-0.0323,-0.0328,-0.0333,-0.0396,-0.04,-0.0451,-0.0436,-0.0399,-0.0437,-0.0438,-0.0508,-0.0517,-0.0533,-0.0592,-0.0598,-0.0581,-0.0584,-0.0586,-0.0587,0,0,0,0,0,0,0,-0.0268,-0.0274,-0.0326,-0.0325,-0.033,-0.0361,-0.0368,-0.041,-0.0451,-0.0402,-0.0406,-0.0414,-0.0511,-0.0528,-0.0536,-0.0599,-0.0581,-0.0585,-0.0588,-0.059,-0.0694,-0.0694,0,0,0,0,0,0,-0.0253,-0.027,-0.0323,-0.0329,-0.0302,-0.0361,-0.037,-0.0376,-0.045,-0.0461,-0.0414,-0.0417,-0.052,-0.0531,-0.0541,-0.0574,-0.0586,-0.059,-0.0593,-0.0694,-0.0694,-0.0695,0,0,0,0,0,0,-0.0251,-0.0256,-0.032,-0.0301,-0.0311,-0.0362,-0.0368,-0.0377,-0.0395,-0.0459,-0.0471,-0.0422,-0.0521,-0.0534,-0.0575,-0.0579,-0.0592,-0.0596,-0.0694,-0.0694,-0.0694,-0.0638,0,0,0,0,0,0,-0.0248,-0.0255,-0.0253,-0.03,-0.0312,-0.0339,-0.0368,-0.0379,-0.0399,-0.0404,-0.0469,-0.0481,-0.0522,-0.0568,-0.058,-0.0586,-0.06,-0.0694,-0.0694,-0.0694,-0.064,-0.0636,-0.0633,0,0,0,0,0,-0.0246,-0.0239,-0.0252,-0.0259,-0.0307,-0.0339,-0.0347,-0.0386,-0.0399,-0.0403,-0.0448,-0.0479,-0.0577,-0.0572,-0.0585,-0.0593,-0.0694,-0.0694,-0.0694,-0.0641,-0.0637,-0.0633,0,0,0,0,0,0,-0.0206,-0.0246,-0.0261,-0.0266,-0.0297,-0.0348,-0.0355,-0.038,-0.0418,-0.0422,-0.0481,-0.0496,-0.0533,-0.0569,-0.0561,-0.0623,-0.0641,-0.0644,-0.0596,-0.0592,-0.0589,-0.0579,-0.0604,0,0,0,0,0,-0.0195,-0.0203,-0.0245,-0.0248,-0.0261,-0.0306,-0.0322,-0.0348,-0.0388,-0.0405,-0.045,-0.05,-0.0544,-0.0571,-0.0613,-0.0648,-0.0668,-0.0661,-0.0658,-0.0655,-0.0656,-0.069,-0.069,-0.0695,-0.0695,-0.0695,0,0,-0.0181,-0.0203,-0.0208,-0.0241,-0.0267,-0.0286,-0.0317,-0.0337,-0.0356,-0.0413,-0.0447,-0.0488,-0.0549,-0.0587,-0.0607,-0.0619,-0.0659,-0.0655,-0.0652,-0.0655,-0.0691,-0.069,-0.0689,-0.0695,-0.0695,-0.0695,0,0,-0.0162,-0.0174,-0.0179,-0.0201,-0.0236,-0.0264,-0.0267,-0.0313,-0.0335,-0.037,-0.0416,-0.0455,-0.0523,-0.0567,-0.06,-0.0603,-0.0637,-0.0618,-0.06,-0.0632,-0.0632,-0.0632,-0.0631,-0.0631,-0.062,-0.062,-0.062,0,-0.0143,-0.0158,-0.0184,-0.0196,-0.0212,-0.0251,-0.0261,-0.0289,-0.0343,-0.0355,-0.0373,-0.0464,-0.0515,-0.0566,-0.0573,-0.0596,-0.0609,-0.0608,-0.0627,-0.0628,-0.0629,-0.0628,-0.0629,-0.0617,-0.0618,-0.0618,-0.0618,0,-0.0137,-0.0147,-0.0149,-0.0179,-0.0194,-0.0208,-0.0247,-0.0261,-0.0287,-0.0319,-0.0362,-0.0428,-0.0479,-0.0506,-0.0547,-0.0583,-0.0585,-0.0613,-0.0633,-0.0624,-0.0624,-0.0626,-0.0614,-0.0615,-0.0615,-0.0616,0,0,-0.0104,-0.0139,-0.014,-0.0143,-0.0187,-0.0191,-0.0214,-0.0243,-0.023,-0.0299,-0.0294,-0.0398,-0.0421,-0.046,-0.0512,-0.0555,-0.057,-0.0587,-0.059,-0.0577,-0.0617,-0.0558,-0.0555,-0.0603,-0.0603,-0.0604,-0.0604,0,-0.0095,-0.0105,-0.013,-0.0132,-0.0139,-0.0169,-0.0171,-0.0196,-0.0215,-0.0212,-0.0294,-0.0304,-0.0408,-0.0405,-0.0477,-0.0534,-0.0579,-0.0566,-0.0636,-0.0637,-0.0579,-0.0557,-0.0522,-0.0515,-0.0606,-0.0607,-0.0607,0,-0.0088,-0.0094,-0.0096,-0.0093,-0.0093,-0.0091,-0.0077,-0.0081,-0.0097,-0.0101,-0.0151,-0.0195,-0.027,-0.0337,-0.0476,-0.0462,-0.0542,-0.0599,-0.0601,-0.057,-0.0583,-0.0545,-0.0516,-0.0726,-0.0611,-0.0611,-0.061,0,-0.0051,-0.0067,-0.006,-0.0066,-0.007,-0.0055,-0.0044,-0.0045,0.0012,-0.0008,0.0056,-0.0088,-0.0071,-0.0243,-0.0373,-0.0424,-0.049,-0.0571,-0.0599,-0.0594,-0.0591,-0.0584,-0.0768,-0.0669,-0.0669,-0.0669,-0.0669,0,-0.0035,-0.0025,-0.0032,-0.0024,0.004,0.0009,0.0101,0.0097,0.0153,0.0261,0.0135,0.0207,-0.0043,-0.0109,-0.0307,-0.0428,-0.0443,-0.0583,-0.0592,-0.0566,-0.0557,-0.0761,-0.0897,-0.0669,-0.0669,-0.0669,-0.0669,0,0.0014,-0.001,0.0022,0.0035,0.0063,0.012,0.0246,0.0343,0.0356,0.0503,0.0522,0.0465,0.0372,0.0141,-0.0075,-0.0265,-0.0533,-0.0473,-0.0402,-0.0404,-0.0661,-0.0793,-0.0966,-0.1043,-0.0534,-0.0532,-0.0531,0,0.0039,0.0052,0.0105,0.0179,0.0201,0.0299,0.0416,0.0455,0.0575,0.0678,0.0778,0.0739,0.0736,0.0454,0.0112,-0.0193,-0.043,-0.0356,-0.0472,-0.0657,-0.0813,-0.0913,-0.0974,-0.0441,-0.044,-0.0438,-0.0437,0,0.0124,0.0142,0.0197,0.035,0.0474,0.061,0.0754,0.0858,0.0937,0.1036,0.1154,0.1155,0.0928,0.0652,0.0269,0.0022,-0.0497,-0.0332,-0.0565,-0.0783,-0.0867,-0.0947,-0.0443,-0.0423,-0.0425,-0.0426,-0.0426,-0.0427,0.0241,0.0318,0.0428,0.0579,0.0716,0.0897,0.1012,0.1153,0.1317,0.1433,0.1431,0.1462,0.1082,0.0558,0.0243,-0.0339,-0.0395,-0.0562,-0.0709,-0.0795,-0.0873,-0.0307,-0.0274,-0.0274,-0.0275,-0.0275,-0.0275,0,0.0427,0.0518,0.067,0.086,0.103,0.1053,0.1245,0.1334,0.1486,0.161,0.1675,0.1538,0.1048,0.0523,-0.0224,-0.0643,-0.0845,-0.0908,-0.1097,-0.1145,-0.0674,-0.0675,-0.0676,-0.0676,-0.0676,-0.0675,-0.0675,-0.0675,0.0553,0.0747,0.0819,0.1123,0.1229,0.1427,0.15,0.1585,0.1665,0.1765,0.1806,0.1828,0.1458,0.0081,-0.0853,-0.1083,-0.1445,-0.1495,-0.1672,-0.142,-0.1402,-0.1384,-0.1418,-0.1575,-0.1576,-0.2074,-0.2079,-0.2083]}],[{"header":{"parameterUnit":"m.s-1","parameterCategory":2,"la1":30.2991,"la2":30.254,"lo1":-89.0895,"lo2":-89.0444,"dy":0.0017,"dx":0.0017,"nx":28,"ny":28,"refTime":"2025-03-09T09:00:00:Z","depth":"2","parameterNumber":2,"parameterNumberName":"U-component_of_CURRENTS"},"data":[0,0,0,0,0,0,0,0,0,0,0,0,0,0,0,0,0,0,0,0,0,0,0,0,0,0,0,0,0,0,0,0,0,0,0,0,0,0,0,0,0,0,0,0,0,0,0,0,0,0,0,0,0,0,0,0,0,0,0.1757,0.1758,0,0.1797,0.1798,0.1798,0.1806,0.1805,0.1805,0.1805,0.184,0.1841,0.1842,0,0,0,0,0,0,0,0,0,0,0,0,0,0.1694,0.1695,0.1757,0.1758,0.1758,0.1797,0.1798,0.1798,0.1806,0.1805,0.1805,0.1805,0.184,0.1841,0.1842,0,0,0,0,0,0,0,0,0,0,0,0,0,0.1724,0.1695,0.1757,0.1769,0.1771,0.1797,0.1798,0.1798,0.1806,0.1805,0.1805,0.1805,0.184,0.1841,0.1843,0.1853,0,0,0.1847,0.1848,0,0,0,0,0,0,0,0,0.1722,0.1726,0.1766,0.1768,0.177,0.1799,0.1789,0.1817,0.1806,0.1789,0.1805,0.1805,0.1828,0.183,0.1834,0.1855,0.1857,0.1847,0.1848,0.1849,0.1849,0,0,0,0,0,0,0,0.172,0.1724,0.177,0.1767,0.177,0.1775,0.1779,0.1794,0.1806,0.1791,0.1792,0.1801,0.1828,0.1833,0.1835,0.1857,0.1847,0.1848,0.1849,0.185,0.1943,0.1945,0,0,0,0,0,0,0.1721,0.1722,0.1769,0.1772,0.1749,0.1777,0.1781,0.1787,0.1806,0.181,0.1801,0.1801,0.183,0.1833,0.1836,0.19,0.1849,0.185,0.1851,0.1942,0.1944,0.1945,0,0,0,0,0,0,0.1719,0.1724,0.1767,0.175,0.1756,0.1778,0.1785,0.1788,0.1805,0.1815,0.1818,0.1817,0.183,0.1834,0.1869,0.19,0.1851,0.1852,0.194,0.1942,0.1945,0.1996,0,0,0,0,0,0,0.1717,0.1723,0.1729,0.175,0.1757,0.18,0.1786,0.1789,0.1811,0.1812,0.1829,0.1831,0.183,0.1867,0.1871,0.1901,0.1853,0.1938,0.1941,0.1944,0.1992,0.2,0.2006,0,0,0,0,0,0.1714,0.1726,0.1729,0.1735,0.1764,0.1802,0.1806,0.1819,0.1812,0.1831,0.1842,0.1831,0.1889,0.187,0.1874,0.1905,0.1936,0.194,0.1944,0.1989,0.1998,0.2006,0,0,0,0,0,0,0.1698,0.1728,0.1732,0.1751,0.1782,0.1804,0.1821,0.1828,0.1849,0.1849,0.1851,0.1855,0.1898,0.1896,0.1875,0.1941,0.1911,0.1916,0.1945,0.1953,0.196,0.1947,0.1854,0,0,0,0,0,0.1698,0.1719,0.1747,0.1766,0.1781,0.1802,0.1818,0.1829,0.1851,0.186,0.1875,0.1891,0.1914,0.1929,0.1947,0.1982,0.1994,0.2006,0.2013,0.2019,0.2012,0.205,0.2059,0.1957,0.1957,0.1957,0,0,0.1697,0.1718,0.1729,0.1765,0.1786,0.1819,0.1811,0.1844,0.1873,0.1861,0.1905,0.1917,0.1929,0.1971,0.199,0.1974,0.2064,0.2023,0.2028,0.2018,0.2054,0.2064,0.2073,0.196,0.1959,0.1959,0,0,0.1716,0.1726,0.1753,0.1781,0.1822,0.1837,0.1851,0.1885,0.1902,0.1944,0.1945,0.1973,0.2011,0.2026,0.2036,0.2092,0.2099,0.2105,0.2131,0.2168,0.2177,0.2184,0.225,0.2263,0.2109,0.2109,0.2109,0,0.1715,0.1747,0.1768,0.1805,0.1825,0.1849,0.188,0.1908,0.1951,0.1967,0.1967,0.2025,0.2035,0.2081,0.21,0.2108,0.2139,0.2097,0.2177,0.2184,0.219,0.2256,0.2269,0.2112,0.2112,0.2111,0.2111,0,0.1756,0.1783,0.1804,0.1854,0.188,0.1913,0.195,0.1982,0.2,0.2024,0.2076,0.2095,0.2124,0.2141,0.2136,0.2192,0.2206,0.2181,0.2152,0.2204,0.2271,0.2283,0.2116,0.2115,0.2114,0.2113,0,0,0.1746,0.1817,0.1824,0.1845,0.1903,0.1925,0.1978,0.2024,0.2059,0.21,0.2145,0.2182,0.2187,0.2199,0.2207,0.2237,0.2322,0.223,0.2231,0.2291,0.2436,0.2395,0.2405,0.2313,0.2315,0.2316,0.2478,0,0.177,0.1828,0.1862,0.1913,0.1938,0.1974,0.202,0.2065,0.2108,0.2164,0.2187,0.2235,0.2214,0.2236,0.2264,0.2307,0.2352,0.2282,0.2381,0.2384,0.2335,0.2416,0.2227,0.235,0.2491,0.2493,0.2494,0,0.1792,0.1827,0.1872,0.1928,0.1943,0.1977,0.2036,0.2088,0.2168,0.2205,0.2252,0.2278,0.2338,0.2306,0.2407,0.2367,0.2403,0.2432,0.2438,0.2381,0.2364,0.2314,0.2368,0.2516,0.2514,0.2512,0.2511,0,0.1753,0.1828,0.1854,0.1875,0.1949,0.197,0.2013,0.209,0.2149,0.2235,0.2289,0.2349,0.2409,0.2444,0.2508,0.2464,0.2629,0.2573,0.2577,0.2576,0.2422,0.2404,0.2639,0.2639,0.2639,0.2638,0.2638,0,0.1751,0.1772,0.1836,0.185,0.189,0.1946,0.2011,0.2065,0.217,0.2255,0.2304,0.2389,0.2445,0.2541,0.2559,0.2631,0.2676,0.26,0.2613,0.244,0.2422,0.2551,0.2539,0.2645,0.2643,0.2642,0.2641,0,0.1701,0.1746,0.1779,0.1849,0.1872,0.1898,0.2013,0.2073,0.217,0.2288,0.232,0.2457,0.2568,0.2634,0.2736,0.2715,0.2769,0.2782,0.2594,0.2579,0.268,0.2668,0.2787,0.2787,0.2787,0.2787,0.2787,0,0.1679,0.1691,0.1762,0.1793,0.1824,0.1887,0.1943,0.2054,0.2136,0.2331,0.2389,0.2538,0.2608,0.2758,0.2767,0.2811,0.2829,0.2657,0.2506,0.2694,0.2695,0.2683,0.2672,0.2353,0.2349,0.2346,0.2344,0,0.1637,0.1661,0.1695,0.1764,0.1815,0.1892,0.1984,0.2047,0.2199,0.2267,0.2408,0.2472,0.2627,0.2588,0.2662,0.2649,0.262,0.2596,0.2863,0.2329,0.2292,0.229,0.2292,0.2317,0.232,0.2322,0.2323,0.2324,0.16,0.162,0.1679,0.1752,0.1808,0.19,0.1933,0.2014,0.2097,0.2174,0.2326,0.2333,0.2416,0.2397,0.2378,0.2374,0.2515,0.2395,0.2401,0.2411,0.2316,0.2278,0.2287,0.2289,0.2291,0.2293,0.2294,0,0.1577,0.1622,0.1679,0.1767,0.1826,0.188,0.1962,0.1943,0.1955,0.2039,0.2072,0.1967,0.1972,0.2054,0.2012,0.2037,0.1979,0.1955,0.1858,0.1888,0.1914,0.1788,0.1622,0.162,0.1617,0.1615,0,0,0.1565,0.1622,0.168,0.1781,0.1838,0.1839,0.1863,0.1789,0.1786,0.1713,0.1695,0.1831,0.1976,0.1747,0.176,0.1683,0.1754,0.1622,0.217,0.2084,0.2106,0.2192,0.2037,0,0,0,0,0]},{"header":{"parameterUnit":"m.s-1","parameterCategory":2,"la1":30.2991,"la2":30.254,"lo1":-89.0895,"lo2":-89.0444,"dy":0.0017,"dx":0.0017,"nx":28,"ny":28,"refTime":"2025-03-09T09:00:00:Z","depth":"2","parameterNumber":3,"parameterNumberName":"V-component_of_CURRENTS"},"data":[0,0,0,0,0,0,0,0,0,0,0,0,0,0,0,0,0,0,0,0,0,0,0,0,0,0,0,0,0,0,0,0,0,0,0,0,0,0,0,0,0,0,0,0,0,0,0,0,0,0,0,0,0,0,0,0,0,0,-0.0222,-0.0222,0,-0.0278,-0.0279,-0.0279,-0.0325,-0.0325,-0.0326,-0.0326,-0.0445,-0.0447,-0.045,0,0,0,0,0,0,0,0,0,0,0,0,0,-0.0179,-0.0179,-0.0222,-0.0222,-0.0223,-0.0278,-0.0279,-0.028,-0.0325,-0.0325,-0.0326,-0.0326,-0.0444,-0.0447,-0.045,0,0,0,0,0,0,0,0,0,0,0,0,0,-0.0212,-0.0179,-0.0221,-0.0252,-0.0256,-0.0278,-0.0279,-0.028,-0.0325,-0.0325,-0.0326,-0.0327,-0.0443,-0.0447,-0.0451,-0.0461,0,0,-0.0463,-0.0465,0,0,0,0,0,0,0,0,-0.021,-0.0214,-0.0247,-0.025,-0.0254,-0.0295,-0.0307,-0.0344,-0.0324,-0.0298,-0.0326,-0.0327,-0.04,-0.0408,-0.0416,-0.0467,-0.0472,-0.0464,-0.0466,-0.0468,-0.0469,0,0,0,0,0,0,0,-0.0208,-0.0212,-0.0244,-0.0248,-0.0252,-0.0272,-0.0278,-0.0314,-0.0345,-0.03,-0.0304,-0.031,-0.0403,-0.0411,-0.0419,-0.0474,-0.0464,-0.0467,-0.047,-0.0471,-0.0583,-0.0584,0,0,0,0,0,0,-0.0199,-0.0209,-0.0242,-0.0245,-0.0234,-0.0273,-0.0278,-0.0281,-0.0344,-0.0354,-0.031,-0.0312,-0.0404,-0.0414,-0.0423,-0.0469,-0.0468,-0.0472,-0.0474,-0.0582,-0.0583,-0.0584,0,0,0,0,0,0,-0.0198,-0.0201,-0.024,-0.0229,-0.0236,-0.0272,-0.0275,-0.0282,-0.0297,-0.035,-0.0361,-0.0319,-0.0405,-0.0418,-0.0457,-0.0473,-0.0473,-0.0477,-0.0582,-0.0583,-0.0583,-0.0542,0,0,0,0,0,0,-0.0196,-0.02,-0.0199,-0.0228,-0.0236,-0.0252,-0.0275,-0.0283,-0.03,-0.0304,-0.0361,-0.0373,-0.0407,-0.045,-0.0461,-0.0479,-0.048,-0.0581,-0.0582,-0.0583,-0.0543,-0.0541,-0.054,0,0,0,0,0,-0.0195,-0.0187,-0.0198,-0.0203,-0.0232,-0.0252,-0.0258,-0.0286,-0.0299,-0.0303,-0.0341,-0.0371,-0.0465,-0.0453,-0.0466,-0.0485,-0.0581,-0.0582,-0.0583,-0.0543,-0.0541,-0.054,0,0,0,0,0,0,-0.0166,-0.0192,-0.0205,-0.0205,-0.0228,-0.026,-0.0265,-0.0284,-0.0316,-0.0321,-0.0372,-0.0385,-0.0428,-0.046,-0.0446,-0.0521,-0.0531,-0.0534,-0.0496,-0.0495,-0.0494,-0.0476,-0.0484,0,0,0,0,0,-0.0158,-0.0162,-0.019,-0.0192,-0.02,-0.0232,-0.0244,-0.0263,-0.0294,-0.0308,-0.0351,-0.0398,-0.0441,-0.0468,-0.0508,-0.0545,-0.0562,-0.0568,-0.0567,-0.0565,-0.056,-0.0594,-0.0595,-0.0588,-0.0588,-0.0588,0,0,-0.0148,-0.0163,-0.0165,-0.0187,-0.0205,-0.0216,-0.0241,-0.0255,-0.0271,-0.0317,-0.0352,-0.0392,-0.0448,-0.0489,-0.0512,-0.052,-0.0575,-0.0567,-0.0565,-0.0561,-0.0595,-0.0596,-0.0596,-0.0588,-0.0588,-0.0588,0,0,-0.013,-0.0141,-0.0141,-0.0157,-0.0182,-0.0201,-0.0204,-0.0239,-0.0261,-0.0295,-0.0335,-0.0378,-0.0446,-0.0486,-0.0515,-0.053,-0.0563,-0.0553,-0.0538,-0.0571,-0.0571,-0.0572,-0.0584,-0.0586,-0.0557,-0.0557,-0.0557,0,-0.0117,-0.0123,-0.0144,-0.0149,-0.016,-0.0192,-0.0195,-0.0221,-0.0266,-0.0281,-0.0304,-0.0393,-0.0444,-0.049,-0.0503,-0.0527,-0.0543,-0.0537,-0.0567,-0.0568,-0.057,-0.0582,-0.0585,-0.0555,-0.0555,-0.0555,-0.0555,0,-0.0103,-0.0111,-0.0111,-0.013,-0.014,-0.0148,-0.0181,-0.0197,-0.0229,-0.0259,-0.0308,-0.0371,-0.042,-0.0454,-0.0489,-0.0528,-0.0534,-0.0555,-0.0565,-0.0567,-0.0581,-0.0584,-0.0552,-0.0553,-0.0553,-0.0554,0,0,-0.0072,-0.0096,-0.0099,-0.01,-0.0131,-0.0132,-0.0154,-0.0179,-0.0174,-0.0244,-0.0251,-0.0349,-0.0375,-0.041,-0.0459,-0.0503,-0.0533,-0.0535,-0.0538,-0.0535,-0.059,-0.0583,-0.0587,-0.0559,-0.056,-0.056,-0.0591,0,-0.006,-0.0059,-0.0079,-0.0077,-0.0078,-0.0106,-0.0112,-0.0137,-0.0164,-0.0176,-0.0255,-0.0281,-0.0361,-0.0373,-0.0433,-0.0499,-0.0543,-0.0522,-0.0599,-0.06,-0.0585,-0.0591,-0.056,-0.0584,-0.0595,-0.0595,-0.0596,0,-0.0044,-0.0046,-0.0039,-0.004,-0.004,-0.0037,-0.0032,-0.0042,-0.0072,-0.0089,-0.0138,-0.0188,-0.0263,-0.0319,-0.0449,-0.0431,-0.0509,-0.0569,-0.0572,-0.0582,-0.0601,-0.0587,-0.059,-0.0602,-0.0601,-0.0601,-0.0601,0,-0.0007,-0.0017,-0.0006,-0.001,-0.0015,-0.0005,-0.0001,-0.0013,0.0001,-0.0021,-0.0005,-0.0109,-0.0132,-0.0262,-0.0403,-0.0423,-0.0528,-0.0568,-0.0635,-0.0635,-0.0631,-0.0629,-0.0656,-0.0656,-0.0656,-0.0656,-0.0656,0,0.0015,0.0025,0.0019,0.0028,0.0071,0.0048,0.0099,0.0094,0.0102,0.0126,0.0052,0.0043,-0.0121,-0.0208,-0.0358,-0.0498,-0.0496,-0.0628,-0.0646,-0.0615,-0.0612,-0.065,-0.0649,-0.0657,-0.0657,-0.0657,-0.0656,0,0.0061,0.0044,0.007,0.0078,0.0092,0.0131,0.018,0.0221,0.0218,0.0253,0.0251,0.0171,0.0048,-0.0107,-0.0293,-0.0413,-0.0562,-0.0612,-0.0553,-0.0564,-0.0658,-0.0654,-0.0691,-0.0691,-0.0691,-0.0691,-0.0692,0,0.0087,0.01,0.0131,0.0166,0.0177,0.023,0.0279,0.0287,0.0318,0.031,0.0324,0.0242,0.0171,-0.0063,-0.0286,-0.0498,-0.0551,-0.0596,-0.0645,-0.0649,-0.0663,-0.0659,-0.0656,-0.062,-0.062,-0.0619,-0.0619,0,0.0147,0.0156,0.0186,0.0251,0.0307,0.0362,0.041,0.0433,0.0429,0.046,0.0429,0.0379,0.0183,-0.0021,-0.0267,-0.0429,-0.0561,-0.0594,-0.0614,-0.0614,-0.0585,-0.0597,-0.0596,-0.0615,-0.0615,-0.0616,-0.0616,-0.0616,0.021,0.0244,0.0279,0.0337,0.0411,0.0446,0.0463,0.0506,0.0538,0.0547,0.0495,0.0468,0.0267,-0.0043,-0.0289,-0.053,-0.0548,-0.0632,-0.0633,-0.0634,-0.0618,-0.0591,-0.0618,-0.0619,-0.0619,-0.0619,-0.0619,0,0.0268,0.0296,0.0358,0.0402,0.0453,0.0491,0.0525,0.0537,0.0553,0.0616,0.0612,0.0451,0.0247,0.0013,-0.0333,-0.055,-0.0581,-0.0622,-0.0608,-0.061,-0.0612,-0.0596,-0.059,-0.059,-0.059,-0.0591,0,0,0.0302,0.0342,0.0347,0.0403,0.0449,0.0501,0.0501,0.0558,0.0603,0.0649,0.0675,0.0652,0.036,0.0126,-0.018,-0.0379,-0.0449,-0.0426,-0.0428,-0.0378,-0.0378,-0.0596,-0.057,0,0,0,0,0]}],[{"header":{"parameterUnit":"m.s-1","parameterCategory":2,"la1":30.2991,"la2":30.254,"lo1":-89.0895,"lo2":-89.0444,"dy":0.0017,"dx":0.0017,"nx":28,"ny":28,"refTime":"2025-03-09T09:00:00:Z","depth":"4","parameterNumber":2,"parameterNumberName":"U-component_of_CURRENTS"},"data":[0,0,0,0,0,0,0,0,0,0,0,0,0,0,0,0,0,0,0,0,0,0,0,0,0,0,0,0,0,0,0,0,0,0,0,0,0,0,0,0,0,0,0,0,0,0,0,0,0,0,0,0,0,0,0,0,0,0,0.1137,0.1137,0,0.1188,0.1188,0.1189,0.123,0.1231,0.1231,0.1232,0.128,0.1281,0.1282,0,0,0,0,0,0,0,0,0,0,0,0,0,0.1057,0.1058,0.1137,0.1137,0.1138,0.1188,0.1188,0.1189,0.123,0.1231,0.1232,0.1232,0.128,0.1281,0.1282,0,0,0,0,0,0,0,0,0,0,0,0,0,0.1097,0.1059,0.1136,0.1166,0.1169,0.1188,0.1189,0.1189,0.123,0.1231,0.1232,0.1232,0.128,0.1281,0.1282,0.1272,0,0,0.1286,0.1286,0,0,0,0,0,0,0,0,0.1095,0.11,0.1161,0.1164,0.1168,0.1205,0.1178,0.1217,0.123,0.1205,0.1232,0.1233,0.1255,0.1259,0.1264,0.1275,0.1277,0.1286,0.1287,0.1287,0.1287,0,0,0,0,0,0,0,0.1092,0.1098,0.1155,0.1161,0.1166,0.1171,0.1177,0.1186,0.1224,0.1207,0.1211,0.1219,0.1257,0.1263,0.1266,0.1278,0.1286,0.1287,0.1288,0.1288,0.1361,0.1362,0,0,0,0,0,0,0.1089,0.1095,0.1154,0.1157,0.1134,0.1172,0.1179,0.1191,0.1224,0.123,0.1218,0.1221,0.1261,0.1264,0.1268,0.1335,0.1287,0.1288,0.1289,0.136,0.1361,0.1363,0,0,0,0,0,0,0.1087,0.1094,0.1152,0.1128,0.1136,0.1172,0.1185,0.1191,0.1222,0.1232,0.1238,0.1246,0.1261,0.1266,0.1299,0.1334,0.1289,0.129,0.1358,0.136,0.1362,0.142,0,0,0,0,0,0,0.1084,0.1093,0.1111,0.1128,0.1137,0.1175,0.1185,0.1192,0.1225,0.123,0.1257,0.1261,0.1262,0.1298,0.13,0.1335,0.1291,0.1357,0.1359,0.1361,0.1416,0.1423,0.1429,0,0,0,0,0,0.1081,0.1098,0.1111,0.1119,0.1158,0.1176,0.1181,0.1208,0.1226,0.1239,0.1265,0.1262,0.1315,0.1299,0.1302,0.1338,0.1356,0.1359,0.1361,0.1413,0.1422,0.1429,0,0,0,0,0,0,0.1073,0.1104,0.1119,0.1146,0.1166,0.1184,0.1204,0.1221,0.1251,0.1264,0.1274,0.128,0.1318,0.1319,0.1302,0.1366,0.1336,0.134,0.1375,0.1383,0.1389,0.1375,0.1292,0,0,0,0,0,0.1079,0.1103,0.1126,0.115,0.1162,0.1188,0.1204,0.1222,0.1245,0.1261,0.1282,0.1307,0.1327,0.1349,0.1358,0.1395,0.1393,0.1421,0.1427,0.1433,0.1423,0.1478,0.1489,0.1372,0.1372,0.1372,0,0,0.1082,0.1104,0.1118,0.115,0.1171,0.119,0.12,0.123,0.1253,0.126,0.1307,0.1325,0.1339,0.1379,0.1398,0.139,0.1461,0.1436,0.1441,0.1428,0.1482,0.1494,0.1504,0.1374,0.1373,0.1373,0,0,0.1086,0.112,0.1136,0.1157,0.1192,0.1207,0.122,0.1252,0.1278,0.1316,0.1331,0.1371,0.1404,0.1426,0.144,0.1487,0.1487,0.15,0.1535,0.1589,0.1599,0.1608,0.1603,0.1612,0.1515,0.1515,0.1515,0,0.109,0.1115,0.1143,0.1162,0.1184,0.1217,0.1235,0.1262,0.1303,0.1327,0.1338,0.1406,0.1424,0.1474,0.1497,0.1503,0.1517,0.1506,0.1599,0.1607,0.1615,0.1609,0.1617,0.1518,0.1518,0.1518,0.1517,0,0.1097,0.1127,0.114,0.1178,0.1203,0.1226,0.1263,0.1302,0.134,0.1363,0.1423,0.1455,0.1502,0.1519,0.1526,0.1597,0.158,0.1594,0.1579,0.1631,0.162,0.1627,0.1523,0.1522,0.1521,0.152,0,0,0.1073,0.1133,0.114,0.1163,0.1216,0.1233,0.1284,0.1329,0.1378,0.1419,0.1485,0.1522,0.1554,0.1571,0.1597,0.1642,0.1713,0.1653,0.1654,0.1646,0.1803,0.172,0.1719,0.176,0.1762,0.1764,0.1765,0,0.107,0.1097,0.114,0.1181,0.1194,0.1257,0.1304,0.1354,0.1409,0.1485,0.1525,0.1589,0.1571,0.1624,0.1666,0.1713,0.1738,0.1708,0.1753,0.1752,0.1674,0.1728,0.1771,0.1771,0.1772,0.1774,0.1774,0,0.1059,0.1077,0.1112,0.1182,0.12,0.1247,0.1339,0.1386,0.1486,0.1536,0.1603,0.1647,0.1721,0.1714,0.1783,0.1773,0.1786,0.18,0.1802,0.1706,0.1685,0.1712,0.1787,0.1786,0.1785,0.1785,0.1784,0,0.1002,0.1063,0.1092,0.1115,0.1198,0.1253,0.131,0.1404,0.1458,0.1586,0.1639,0.1723,0.1776,0.1827,0.185,0.1844,0.1914,0.1913,0.1824,0.1816,0.1863,0.1853,0.1947,0.1947,0.1947,0.1947,0.1947,0,0.0973,0.0999,0.108,0.1098,0.1168,0.1232,0.1329,0.1404,0.1513,0.1576,0.1668,0.1722,0.1813,0.1861,0.1883,0.1869,0.194,0.1824,0.1824,0.1883,0.1876,0.1866,0.1857,0.1947,0.1947,0.1947,0.1947,0,0.0922,0.0964,0.1015,0.111,0.1149,0.1209,0.1341,0.1398,0.1499,0.1594,0.1639,0.1736,0.1801,0.1852,0.1929,0.1882,0.1905,0.1873,0.1902,0.1904,0.1753,0.1747,0.178,0.1778,0.1776,0.1774,0.1772,0,0.0901,0.0915,0.1027,0.1071,0.1134,0.1224,0.1284,0.1394,0.1443,0.158,0.1609,0.1706,0.1765,0.1773,0.1852,0.1879,0.1857,0.1831,0.1809,0.1746,0.1743,0.174,0.1737,0.1769,0.1768,0.1767,0.1767,0,0.0867,0.0925,0.0974,0.1054,0.1131,0.1198,0.1283,0.1305,0.1419,0.1514,0.1556,0.1606,0.1661,0.1718,0.1739,0.1761,0.1846,0.1808,0.1812,0.179,0.1732,0.1731,0.173,0.1759,0.176,0.1761,0.1761,0,0.0866,0.0898,0.0967,0.1041,0.112,0.1149,0.1201,0.1246,0.1302,0.143,0.1443,0.1552,0.164,0.1655,0.1694,0.1704,0.1683,0.1625,0.1638,0.1647,0.1611,0.1518,0.148,0,0,0,0,0,0.0852,0.0876,0.0938,0.1004,0.1073,0.111,0.1188,0.1228,0.1321,0.1318,0.1376,0.1434,0.1493,0.1548,0.1536,0.165,0.1694,0.163,0.1634,0.1716,0.1725,0.1698,0,0,0,0,0,0,0.0842,0.0894,0.0917,0.0951,0.098,0.1035,0.1076,0.1134,0.1131,0.1235,0.127,0.1359,0.1432,0.1488,0.1512,0.1531,0.1508,0.1701,0.1698,0.1711,0.1719,0.1727,0.1702,0,0,0,0,0]},{"header":{"parameterUnit":"m.s-1","parameterCategory":2,"la1":30.2991,"la2":30.254,"lo1":-89.0895,"lo2":-89.0444,"dy":0.0017,"dx":0.0017,"nx":28,"ny":28,"refTime":"2025-03-09T09:00:00:Z","depth":"4","parameterNumber":3,"parameterNumberName":"V-component_of_CURRENTS"},"data":[0,0,0,0,0,0,0,0,0,0,0,0,0,0,0,0,0,0,0,0,0,0,0,0,0,0,0,0,0,0,0,0,0,0,0,0,0,0,0,0,0,0,0,0,0,0,0,0,0,0,0,0,0,0,0,0,0,0,-0.0075,-0.0075,0,-0.0101,-0.0101,-0.0102,-0.0125,-0.0125,-0.0126,-0.0126,-0.0157,-0.0158,-0.0158,0,0,0,0,0,0,0,0,0,0,0,0,0,-0.005,-0.005,-0.0075,-0.0075,-0.0075,-0.0101,-0.0101,-0.0102,-0.0125,-0.0125,-0.0126,-0.0126,-0.0157,-0.0158,-0.0158,0,0,0,0,0,0,0,0,0,0,0,0,0,-0.0067,-0.005,-0.0075,-0.009,-0.0092,-0.0101,-0.0101,-0.0102,-0.0125,-0.0125,-0.0126,-0.0126,-0.0157,-0.0157,-0.0158,-0.0155,0,0,-0.0161,-0.0161,0,0,0,0,0,0,0,0,-0.0066,-0.0067,-0.0088,-0.0089,-0.0091,-0.011,-0.0104,-0.012,-0.0125,-0.0112,-0.0126,-0.0126,-0.0142,-0.0144,-0.0147,-0.0156,-0.0157,-0.0161,-0.0161,-0.0162,-0.0162,0,0,0,0,0,0,0,-0.0064,-0.0066,-0.0085,-0.0088,-0.009,-0.0098,-0.0101,-0.0107,-0.0124,-0.0113,-0.0115,-0.0118,-0.0143,-0.0147,-0.0148,-0.0158,-0.0161,-0.0162,-0.0162,-0.0162,-0.0173,-0.0173,0,0,0,0,0,0,-0.0061,-0.0065,-0.0084,-0.0086,-0.0079,-0.0098,-0.0101,-0.0103,-0.0124,-0.0127,-0.0118,-0.0119,-0.0145,-0.0147,-0.0149,-0.0139,-0.0162,-0.0163,-0.0163,-0.0173,-0.0173,-0.0172,0,0,0,0,0,0,-0.006,-0.0062,-0.0083,-0.0076,-0.008,-0.0098,-0.01,-0.0104,-0.0111,-0.0127,-0.0131,-0.0122,-0.0145,-0.0148,-0.0155,-0.0141,-0.0163,-0.0164,-0.0173,-0.0173,-0.0173,-0.0124,0,0,0,0,0,0,-0.0059,-0.0062,-0.0063,-0.0076,-0.008,-0.0083,-0.01,-0.0104,-0.0112,-0.0115,-0.0132,-0.0136,-0.0146,-0.0154,-0.0156,-0.0143,-0.0164,-0.0174,-0.0173,-0.0173,-0.0126,-0.0122,-0.0119,0,0,0,0,0,-0.0058,-0.0053,-0.0062,-0.0065,-0.008,-0.0082,-0.0084,-0.0099,-0.0112,-0.0109,-0.0125,-0.0135,-0.0153,-0.0154,-0.0157,-0.0143,-0.0174,-0.0173,-0.0173,-0.0127,-0.0123,-0.0119,0,0,0,0,0,0,-0.0042,-0.0055,-0.0066,-0.0065,-0.0072,-0.0086,-0.0086,-0.0098,-0.0109,-0.0113,-0.0132,-0.0136,-0.0138,-0.015,-0.0151,-0.0147,-0.0165,-0.0165,-0.013,-0.0125,-0.0122,-0.0095,-0.0165,0,0,0,0,0,-0.0039,-0.0039,-0.0053,-0.0053,-0.0056,-0.0072,-0.0076,-0.0086,-0.0097,-0.0102,-0.0115,-0.0129,-0.0136,-0.0139,-0.0149,-0.0144,-0.0167,-0.0139,-0.0135,-0.0132,-0.0112,-0.0144,-0.0141,-0.0171,-0.0171,-0.0171,0,0,-0.0032,-0.004,-0.0041,-0.0049,-0.0058,-0.0045,-0.0076,-0.0078,-0.0064,-0.0103,-0.0093,-0.0119,-0.0134,-0.013,-0.0132,-0.0138,-0.0138,-0.0131,-0.0128,-0.011,-0.0143,-0.014,-0.0137,-0.017,-0.017,-0.0171,0,0,-0.0007,-0.0026,-0.0012,-0.0014,-0.0023,-0.003,-0.003,-0.0043,-0.0047,-0.0045,-0.007,-0.0084,-0.0096,-0.01,-0.0104,-0.0086,-0.0122,-0.0098,-0.0051,-0.0082,-0.008,-0.0078,-0.0115,-0.0117,-0.0092,-0.0091,-0.0091,0,0.0004,0.002,-0.0007,0.001,0.0017,-0.0019,0.0007,0.0,-0.0013,-0.0009,-0.0035,-0.0054,-0.0075,-0.006,-0.0057,-0.0075,-0.0106,-0.0065,-0.0077,-0.0075,-0.0074,-0.0113,-0.0115,-0.0089,-0.0089,-0.009,-0.009,0,0.0047,0.0059,0.0068,0.008,0.008,0.0094,0.0083,0.0081,0.0063,0.0057,0.0055,0.0019,0.0008,-0.0004,-0.0024,-0.002,-0.0051,-0.0073,-0.0085,-0.0068,-0.011,-0.0114,-0.0086,-0.0086,-0.0087,-0.0088,0,0,0.008,0.0097,0.0102,0.0119,0.012,0.0125,0.0146,0.0158,0.0159,0.0146,0.0149,0.0139,0.0103,0.0095,0.0059,0.0038,0.0007,-0.001,-0.0013,-0.0041,-0.0073,-0.0104,-0.0111,-0.0025,-0.0025,-0.0025,-0.011,0,0.0129,0.0178,0.0173,0.0218,0.0243,0.0221,0.0238,0.0237,0.0217,0.0204,0.0182,0.016,0.0146,0.0114,0.0101,0.0013,0.0002,0.0032,-0.0089,-0.0092,-0.0117,-0.0114,-0.0025,-0.0113,-0.0114,-0.0114,-0.0115,0,0.0182,0.0208,0.0263,0.0285,0.0291,0.0305,0.0308,0.0316,0.0296,0.0274,0.0262,0.0218,0.0191,0.0156,0.0076,0.0088,0.0028,-0.0028,-0.0034,-0.0076,-0.0129,-0.0131,-0.0121,-0.0121,-0.012,-0.012,-0.0119,0,0.0223,0.0271,0.0315,0.0326,0.0342,0.0354,0.0354,0.034,0.0325,0.0302,0.0263,0.0248,0.0189,0.0139,0.0029,0.0041,-0.0082,-0.0087,-0.0155,-0.0159,-0.0126,-0.0127,-0.012,-0.012,-0.012,-0.012,-0.0119,0,0.0276,0.0311,0.0334,0.0353,0.0378,0.0384,0.0382,0.0375,0.0344,0.0323,0.029,0.0254,0.0176,0.0093,0.0028,-0.0085,-0.0082,-0.0139,-0.0178,-0.0107,-0.0105,-0.013,-0.013,-0.0123,-0.0122,-0.0121,-0.0121,0,0.03,0.0328,0.0363,0.0388,0.0392,0.0398,0.0373,0.0356,0.0338,0.0299,0.0283,0.0226,0.0133,0.0045,-0.0071,-0.0114,-0.0207,-0.0241,-0.0171,-0.0206,-0.0257,-0.0253,-0.0312,-0.0314,-0.0315,-0.0316,-0.0317,0,0.0312,0.0339,0.0362,0.0353,0.0356,0.0361,0.0345,0.0344,0.0324,0.0288,0.0264,0.0175,0.0133,-0.0039,-0.0127,-0.0255,-0.0262,-0.0315,-0.0251,-0.0242,-0.0274,-0.0268,-0.0263,-0.032,-0.032,-0.032,-0.0321,0,0.0306,0.031,0.0316,0.031,0.0298,0.0302,0.0295,0.0294,0.0295,0.0268,0.0251,0.018,0.0069,-0.0029,-0.0154,-0.0233,-0.0284,-0.0329,-0.0326,-0.0266,-0.0253,-0.0281,-0.0274,-0.0326,-0.0325,-0.0325,-0.0324,0,0.0263,0.0247,0.024,0.0239,0.0235,0.0254,0.0266,0.0264,0.0263,0.026,0.0256,0.0171,0.0124,-0.0021,-0.0126,-0.0227,-0.0226,-0.0236,-0.0237,-0.0233,-0.0183,-0.0152,-0.0222,0,0,0,0,0,0.0203,0.0174,0.0163,0.0171,0.0184,0.0205,0.0224,0.0243,0.0271,0.0264,0.0272,0.0192,0.0057,-0.0001,-0.0102,-0.0167,-0.0268,-0.0291,-0.0286,-0.0354,-0.0348,-0.0304,0,0,0,0,0,0,0.0143,0.0116,0.0135,0.0131,0.0146,0.0168,0.0205,0.0233,0.0245,0.0264,0.0201,0.0168,0.0035,0.0121,-0.0099,-0.0134,-0.0144,-0.0357,-0.0359,-0.0357,-0.0352,-0.0347,-0.03,0,0,0,0,0]}]]